| time (UTC) | temp F | wind direction | speed MPH | gust MPH | rain 1hr in | rain 24hr in | rain mn in | humidity % | barometer mb |
| 20260503003604 | 66 | 157 | 6.0 | 17.0 | 0.04 | 0.05 | 0.05 | 81 | 1012.3 |
| 20260503002704 | 67 | 157 | 5.0 | 13.0 | 0.01 | 0.02 | 0.02 | 79 | 1011.7 |
| 20260503001804 | 66 | 157 | 5.0 | 11.0 | 0.00 | 0.01 | 0.01 | 78 | 1011.9 |
| 20260503000925 | 66 | 157 | 6.0 | 10.0 | 0.00 | 0.01 | 0.01 | 78 | 1011.9 |
| 20260503000004 | 67 | 157 | 7.0 | 19.0 | 0.00 | 0.01 | 0.01 | 78 | 1011.9 |
| 20260502235404 | 67 | 157 | 6.0 | 21.0 | 0.00 | 0.01 | 0.01 | 76 | 1011.6 |
| 20260502234504 | 67 | 157 | 7.0 | 14.0 | 0.00 | 0.01 | 0.01 | 76 | 1011.6 |
| 20260502233603 | 67 | 157 | 8.0 | 18.0 | 0.00 | 0.01 | 0.01 | 76 | 1011.6 |
| 20260502232704 | 67 | 157 | 9.0 | 19.0 | 0.00 | 0.01 | 0.01 | 76 | 1011.9 |
| 20260502231804 | 67 | 157 | 9.0 | 20.0 | 0.00 | 0.01 | 0.01 | 76 | 1011.9 |
| 20260502230904 | 68 | 157 | 9.0 | 19.0 | 0.00 | 0.01 | 0.01 | 75 | 1011.7 |
| 20260502230004 | 68 | 157 | 9.0 | 24.0 | 0.00 | 0.01 | 0.01 | 76 | 1011.7 |
| 20260502225404 | 68 | 157 | 8.0 | 24.0 | 0.00 | 0.01 | 0.01 | 76 | 1011.7 |
| 20260502224503 | 67 | 157 | 8.0 | 19.0 | 0.00 | 0.01 | 0.01 | 78 | 1011.7 |
| 20260502223603 | 66 | 157 | 6.0 | 15.0 | 0.00 | 0.01 | 0.01 | 79 | 1011.8 |
| 20260502222703 | 65 | 157 | 7.0 | 16.0 | 0.00 | 0.01 | 0.01 | 80 | 1011.9 |
| 20260502221803 | 65 | 157 | 7.0 | 16.0 | 0.00 | 0.01 | 0.01 | 82 | 1011.8 |
| 20260502220903 | 64 | 157 | 7.0 | 18.0 | 0.01 | 0.01 | 0.01 | 82 | 1012.1 |
| 20260502220005 | 64 | 157 | 6.0 | 13.0 | 0.01 | 0.01 | 0.01 | 83 | 1012.2 |
| 20260502215404 | 64 | 157 | 6.0 | 15.0 | 0.01 | 0.01 | 0.01 | 83 | 1012.2 |
| 20260502214504 | 64 | 157 | 7.0 | 20.0 | 0.01 | 0.01 | 0.01 | 83 | 1012.0 |
| 20260502213604 | 64 | 157 | 6.0 | 14.0 | 0.01 | 0.01 | 0.01 | 83 | 1011.7 |
| 20260502212704 | 64 | 157 | 7.0 | 15.0 | 0.01 | 0.01 | 0.01 | 83 | 1012.0 |
| 20260502211805 | 64 | 157 | 7.0 | 20.0 | 0.01 | 0.01 | 0.01 | 82 | 1012.1 |
| 20260502210926 | 65 | 157 | 6.0 | 17.0 | 0.00 | 0.00 | 0.00 | 81 | 1012.5 |
| 20260502210004 | 65 | 157 | 7.0 | 17.0 | 0.00 | 0.00 | 0.00 | 80 | 1012.7 |
| 20260502205425 | 65 | 157 | 7.0 | 17.0 | 0.00 | 0.00 | 0.00 | 80 | 1012.9 |
| 20260502204504 | 65 | 157 | 7.0 | 17.0 | 0.00 | 0.00 | 0.00 | 80 | 1012.7 |
| 20260502203604 | 66 | 157 | 8.0 | 16.0 | 0.00 | 0.00 | 0.00 | 78 | 1012.9 |
| 20260502202705 | 66 | 157 | 8.0 | 23.0 | 0.00 | 0.00 | 0.00 | 76 | 1012.9 |
| 20260502201804 | 67 | 157 | 8.0 | 23.0 | 0.00 | 0.00 | 0.00 | 73 | 1013.0 |
| 20260502200904 | 67 | 157 | 8.0 | 21.0 | 0.00 | 0.00 | 0.00 | 73 | 1012.7 |
| 20260502200004 | 67 | 157 | 8.0 | 18.0 | 0.00 | 0.00 | 0.00 | 72 | 1012.9 |
| 20260502195404 | 67 | 157 | 8.0 | 17.0 | 0.00 | 0.00 | 0.00 | 72 | 1012.8 |
| 20260502194504 | 68 | 157 | 7.0 | 19.0 | 0.00 | 0.00 | 0.00 | 71 | 1012.8 |
| 20260502193604 | 68 | 157 | 7.0 | 19.0 | 0.00 | 0.00 | 0.00 | 69 | 1012.8 |
| 20260502192704 | 68 | 157 | 8.0 | 19.0 | 0.00 | 0.00 | 0.00 | 69 | 1012.6 |
| 20260502191804 | 69 | 157 | 8.0 | 19.0 | 0.00 | 0.00 | 0.00 | 68 | 1012.6 |
| 20260502190904 | 69 | 157 | 9.0 | 23.0 | 0.00 | 0.00 | 0.00 | 67 | 1012.5 |
| 20260502190005 | 69 | 157 | 10.0 | 22.0 | 0.00 | 0.00 | 0.00 | 65 | 1012.5 |
| 20260502185425 | 70 | 157 | 10.0 | 22.0 | 0.00 | 0.00 | 0.00 | 65 | 1012.4 |
| 20260502184504 | 70 | 157 | 10.0 | 25.0 | 0.00 | 0.00 | 0.00 | 64 | 1012.2 |
| 20260502183604 | 70 | 157 | 8.0 | 22.0 | 0.00 | 0.00 | 0.00 | 64 | 1012.2 |
| 20260502182704 | 70 | 157 | 7.0 | 18.0 | 0.00 | 0.00 | 0.00 | 64 | 1012.4 |
| 20260502181804 | 70 | 157 | 7.0 | 18.0 | 0.00 | 0.00 | 0.00 | 64 | 1012.5 |
| 20260502180904 | 70 | 157 | 7.0 | 18.0 | 0.00 | 0.00 | 0.00 | 63 | 1012.5 |
| 20260502163625 | 70 | 157 | 4.0 | 10.0 | 0.00 | 0.00 | 0.00 | 60 | 1013.2 |
| 20260502162704 | 70 | 157 | 3.0 | 11.0 | 0.00 | 0.00 | 0.00 | 59 | 1013.3 |
| 20260502161805 | 70 | 157 | 3.0 | 8.0 | 0.00 | 0.00 | 0.00 | 59 | 1013.4 |
| 20260502160904 | 70 | 157 | 3.0 | 8.0 | 0.00 | 0.00 | 0.00 | 59 | 1013.4 |
| 20260502151804 | 70 | 157 | 5.0 | 9.0 | 0.00 | 0.00 | 0.00 | 59 | 1013.6 |
| 20260502150925 | 70 | 157 | 5.0 | 13.0 | 0.00 | 0.00 | 0.00 | 58 | 1013.8 |
| 20260502123604 | 71 | 157 | 6.0 | 13.0 | 0.00 | 0.00 | 0.00 | 55 | 1014.6 |
| 20260502122725 | 71 | 157 | 7.0 | 14.0 | 0.00 | 0.00 | 0.00 | 55 | 1014.6 |
| 20260502121804 | 71 | 157 | 8.0 | 16.0 | 0.00 | 0.00 | 0.00 | 55 | 1014.7 |
| 20260502120904 | 71 | 157 | 7.0 | 21.0 | 0.00 | 0.00 | 0.00 | 55 | 1014.8 |
| 20260502115404 | 71 | 157 | 6.0 | 15.0 | 0.00 | 0.00 | 0.00 | 55 | 1014.9 |
| 20260502113604 | 71 | 157 | 6.0 | 16.0 | 0.00 | 0.00 | 0.00 | 55 | 1015.2 |
| 20260502112704 | 71 | 157 | 6.0 | 16.0 | 0.00 | 0.00 | 0.00 | 55 | 1015.2 |
| 20260502111804 | 70 | 157 | 4.0 | 13.0 | 0.00 | 0.00 | 0.00 | 56 | 1015.2 |
| 20260502110904 | 70 | 157 | 4.0 | 16.0 | 0.00 | 0.00 | 0.00 | 56 | 1015.3 |
| 20260502110026 | 70 | 157 | 5.0 | 14.0 | 0.00 | 0.00 | 0.00 | 57 | 1015.3 |
| 20260502105404 | 70 | 157 | 4.0 | 17.0 | 0.00 | 0.00 | 0.00 | 57 | 1015.4 |
| 20260502104504 | 70 | 157 | 4.0 | 11.0 | 0.00 | 0.00 | 0.00 | 57 | 1015.4 |
| 20260502103604 | 70 | 157 | 4.0 | 11.0 | 0.00 | 0.00 | 0.00 | 57 | 1015.4 |
| 20260502102704 | 70 | 157 | 4.0 | 12.0 | 0.00 | 0.00 | 0.00 | 57 | 1015.4 |
| 20260502101804 | 70 | 157 | 4.0 | 14.0 | 0.00 | 0.00 | 0.00 | 57 | 1015.4 |
| 20260502090905 | 70 | 157 | 3.0 | 12.0 | 0.00 | 0.00 | 0.00 | 56 | 1015.6 |
| 20260502070905 | 70 | 157 | 3.0 | 8.0 | 0.00 | 0.00 | 0.00 | 56 | 1015.3 |
| 20260502070005 | 71 | 157 | 3.0 | 6.0 | 0.00 | 0.00 | 0.00 | 56 | 1015.4 |
| 20260502065405 | 71 | 157 | 2.0 | 6.0 | 0.00 | 0.00 | 0.00 | 56 | 1015.5 |
| 20260502064505 | 72 | 157 | 2.0 | 6.0 | 0.00 | 0.00 | 0.00 | 55 | 1015.5 |
| 20260502063605 | 72 | 157 | 3.0 | 8.0 | 0.00 | 0.00 | 0.00 | 55 | 1015.4 |
| 20260502062705 | 72 | 157 | 3.0 | 10.0 | 0.00 | 0.00 | 0.00 | 54 | 1015.5 |
| 20260502061805 | 73 | 157 | 3.0 | 10.0 | 0.00 | 0.00 | 0.00 | 54 | 1015.5 |
| 20260502060905 | 73 | 157 | 3.0 | 10.0 | 0.00 | 0.00 | 0.00 | 54 | 1015.5 |
| 20260502060005 | 72 | 157 | 3.0 | 6.0 | 0.00 | 0.00 | 0.00 | 55 | 1015.6 |
| 20260502055405 | 72 | 157 | 3.0 | 14.0 | 0.00 | 0.00 | 0.00 | 55 | 1015.6 |
| 20260502054505 | 72 | 157 | 3.0 | 14.0 | 0.00 | 0.00 | 0.00 | 55 | 1015.5 |
| 20260502053605 | 71 | 157 | 3.0 | 9.0 | 0.00 | 0.00 | 0.00 | 56 | 1015.5 |
| 20260502052705 | 71 | 157 | 3.0 | 10.0 | 0.00 | 0.00 | 0.00 | 56 | 1015.6 |
| 20260502051805 | 71 | 157 | 4.0 | 8.0 | 0.00 | 0.00 | 0.00 | 57 | 1015.6 |
| 20260502050905 | 71 | 157 | 5.0 | 15.0 | 0.00 | 0.00 | 0.00 | 56 | 1015.7 |
| 20260502050005 | 71 | 157 | 4.0 | 12.0 | 0.00 | 0.00 | 0.00 | 56 | 1015.7 |
| 20260502045405 | 71 | 157 | 3.0 | 10.0 | 0.00 | 0.00 | 0.00 | 56 | 1015.8 |
| 20260502044505 | 71 | 157 | 3.0 | 9.0 | 0.00 | 0.00 | 0.00 | 57 | 1015.9 |
| 20260502043605 | 71 | 157 | 3.0 | 8.0 | 0.00 | 0.00 | 0.00 | 57 | 1016.2 |
| 20260502042705 | 71 | 157 | 3.0 | 11.0 | 0.00 | 0.00 | 0.00 | 57 | 1016.2 |
| 20260502041805 | 71 | 157 | 3.0 | 8.0 | 0.00 | 0.00 | 0.00 | 57 | 1016.2 |
| 20260502040926 | 71 | 157 | 4.0 | 8.0 | 0.00 | 0.00 | 0.00 | 58 | 1016.2 |
| 20260502040005 | 71 | 157 | 5.0 | 12.0 | 0.00 | 0.00 | 0.00 | 57 | 1016.3 |
| 20260502035426 | 71 | 157 | 4.0 | 11.0 | 0.00 | 0.00 | 0.00 | 57 | 1016.4 |
| 20260502034526 | 71 | 157 | 4.0 | 9.0 | 0.00 | 0.00 | 0.00 | 57 | 1016.5 |
| 20260502033605 | 71 | 157 | 4.0 | 10.0 | 0.00 | 0.00 | 0.00 | 57 | 1016.7 |
| 20260502032704 | 71 | 157 | 5.0 | 12.0 | 0.00 | 0.00 | 0.00 | 57 | 1016.8 |
| 20260502031826 | 72 | 157 | 5.0 | 16.0 | 0.00 | 0.00 | 0.00 | 56 | 1016.9 |
| 20260502030904 | 71 | 157 | 5.0 | 14.0 | 0.00 | 0.00 | 0.00 | 57 | 1017.1 |
| 20260502030027 | 71 | 157 | 5.0 | 13.0 | 0.00 | 0.00 | 0.00 | 57 | 1017.2 |
| 20260502025405 | 71 | 157 | 5.0 | 13.0 | 0.00 | 0.00 | 0.00 | 56 | 1017.4 |
| 20260502024527 | 71 | 157 | 5.0 | 11.0 | 0.00 | 0.00 | 0.00 | 58 | 1017.6 |
| 20260502023605 | 71 | 157 | 5.0 | 11.0 | 0.00 | 0.00 | 0.00 | 58 | 1017.7 |
| 20260502022704 | 70 | 157 | 6.0 | 13.0 | 0.00 | 0.00 | 0.00 | 59 | 1017.9 |
| 20260502021826 | 70 | 157 | 6.0 | 16.0 | 0.00 | 0.00 | 0.00 | 58 | 1018.1 |
| 20260502020905 | 69 | 157 | 6.0 | 14.0 | 0.00 | 0.00 | 0.00 | 58 | 1018.2 |
| 20260502020005 | 69 | 157 | 6.0 | 12.0 | 0.00 | 0.00 | 0.00 | 59 | 1018.4 |
| 20260502015405 | 69 | 157 | 7.0 | 13.0 | 0.00 | 0.00 | 0.00 | 59 | 1018.5 |
| 20260502014505 | 69 | 157 | 7.0 | 18.0 | 0.00 | 0.00 | 0.00 | 58 | 1018.5 |
| 20260502013604 | 69 | 157 | 6.0 | 13.0 | 0.00 | 0.00 | 0.00 | 59 | 1018.8 |
| 20260502012705 | 69 | 157 | 6.0 | 14.0 | 0.00 | 0.00 | 0.00 | 58 | 1018.9 |
| 20260502011804 | 69 | 157 | 7.0 | 13.0 | 0.00 | 0.00 | 0.00 | 58 | 1019.1 |
| 20260502010905 | 69 | 157 | 8.0 | 17.0 | 0.00 | 0.00 | 0.00 | 58 | 1019.3 |
| 20260502010005 | 69 | 157 | 7.0 | 19.0 | 0.00 | 0.00 | 0.00 | 58 | 1019.4 |
| 20260502005405 | 69 | 157 | 6.0 | 17.0 | 0.00 | 0.00 | 0.00 | 58 | 1019.5 |
| 20260502004504 | 68 | 157 | 6.0 | 17.0 | 0.00 | 0.00 | 0.00 | 58 | 1019.6 |